Weather History for Newcastle, WY

Change the Weather History Date:

Friday, July 5, 2013

  Actual Average (KCUT) Record (KCUT)
Temperature  
Mean Temperature 74 °F 65 °F  
Max Temperature 87 °F 78 °F 96 °F (1989)
Min Temperature 60 °F 51 °F 34 °F (1958)
Degree Days  
Heating Degree Days 0 2  
Month to date heating degree days 14  
Since 1 June heating degree days 234  
Since 1 July heating degree days 14  
Cooling Degree Days 8 2  
Month to date cooling degree days 10  
Year to date cooling degree days 36  
Since 1 June cooling degree days 35  
Growing Degree Days 24 (Base 50)    
Moisture  
Dew Point 53 °F    
Average Humidity 57    
Maximum Humidity 82    
Minimum Humidity 24    
Precipitation  
Precipitation 0.14 in 0.07 in 1.36 in (1971)
Month to date precipitation 0.37  
Year to date precipitation 10.70  
Sea Level Pressure  
Sea Level Pressure 29.88 in    
Wind  
Wind Speed 7 mph (SE)    
Max Wind Speed 15 mph    
Max Gust Speed 44 mph    
Visibility 10 miles    
Events Rain , Thunderstorm    
T = Trace of Precipitation, MM = Missing Value Source: NWS Daily Summary

Daily Weather History Graph

Daily Weather History Graph

Search for Another Location

Airport:

Trip Planner

Search our weather history database for the weather conditions in past years. The results will help you decide how hot, cold, wet, or windy it might be!

Date:

Astronomy

Jul. 05, 2013 Rise Set
Actual Time 5:21 AM MDT 8:42 PM MDT
Civil Twilight 4:45 AM MDT 9:17 PM MDT
Nautical Twilight 3:58 AM MDT 10:04 PM MDT
Astronomical Twilight 3:00 AM MDT 11:02 PM MDT
Moon 3:24 AM MDT (7/5) 6:37 PM MDT (7/5)
Length of Visible Light 16h 32m
Length of Day
15h 21m
Waning Crescent, 6% of the Moon is Illuminated
Jul 5
Waning Crescent
Jul 8
New
Jul 15
First Quarter
Jul 22
Full
Jul 29
Last Quarter

Hourly Weather History & Observations

Time (MDT) Temp. Dew Point Humidity Pressure Visibility Wind Dir Wind Speed Gust Speed Precip Events Conditions
12:15 AM 68.0 °F 55.4 °F 64% 30.02 in 10.0 mi NNW 6.9 mph - N/A Rain Light Rain
12:35 AM 66.2 °F 55.4 °F 68% 30.03 in 10.0 mi WNW 6.9 mph - N/A   Scattered Clouds
12:55 AM 64.4 °F 55.4 °F 73% 30.02 in 10.0 mi NW 8.1 mph - N/A   Scattered Clouds
1:15 AM 64.4 °F 55.4 °F 73% 30.02 in 10.0 mi NNW 8.1 mph - N/A   Clear
1:35 AM 64.4 °F 55.4 °F 73% 30.01 in 10.0 mi NW 8.1 mph - N/A   Clear
1:55 AM 64.4 °F 55.4 °F 73% 30.00 in 10.0 mi NNW 8.1 mph - N/A   Clear
2:15 AM 64.4 °F 53.6 °F 68% 29.99 in 10.0 mi North 6.9 mph - N/A   Clear
2:35 AM 64.4 °F 53.6 °F 68% 29.98 in 10.0 mi NNW 5.8 mph - N/A   Light Drizzle
2:55 AM 62.6 °F 53.6 °F 72% 29.96 in 10.0 mi NNW 6.9 mph - N/A Rain Rain
3:15 AM 62.6 °F 55.4 °F 77% 29.94 in 10.0 mi NNE 6.9 mph - N/A Rain Rain
3:35 AM 62.6 °F 55.4 °F 77% 29.92 in 10.0 mi ENE 8.1 mph - N/A Rain Light Rain
3:55 AM 62.6 °F 53.6 °F 72% 29.89 in 10.0 mi ENE 10.4 mph - N/A   Light Drizzle
4:15 AM 64.4 °F 51.8 °F 64% 29.87 in 10.0 mi North - - N/A   Clear
4:35 AM 64.4 °F 51.8 °F 64% 29.87 in 10.0 mi North - - N/A   Clear
4:55 AM 66.2 °F 51.8 °F 60% 29.86 in 10.0 mi SSW 3.5 mph - N/A   Clear
5:15 AM 62.6 °F 53.6 °F 72% 29.87 in - Calm Calm - N/A   Clear
5:35 AM 60.8 °F 55.4 °F 82% 29.88 in - Calm Calm - N/A   Clear
5:55 AM 62.6 °F 57.2 °F 82% 29.88 in 10.0 mi North - - N/A   Clear
6:15 AM 62.6 °F 55.4 °F 77% 29.88 in 10.0 mi SE 8.1 mph - N/A   Clear
6:35 AM 62.6 °F 55.4 °F 77% 29.89 in 10.0 mi ESE 9.2 mph - N/A   Clear
6:55 AM 62.6 °F 55.4 °F 77% 29.89 in 10.0 mi ESE 9.2 mph - N/A   Clear
7:15 AM 62.6 °F 55.4 °F 77% 29.89 in 10.0 mi North - - N/A   Clear
7:35 AM 62.6 °F 57.2 °F 82% 29.90 in 10.0 mi North - - N/A   Clear
7:55 AM 62.6 °F 57.2 °F 82% 29.90 in 10.0 mi SSE 4.6 mph - N/A   Clear
8:15 AM 64.4 °F 55.4 °F 73% 29.91 in 10.0 mi North - - N/A   Clear
8:35 AM 64.4 °F 57.2 °F 77% 29.91 in 10.0 mi North - - N/A   Clear
8:55 AM 68.0 °F 55.4 °F 64% 29.90 in 10.0 mi North - - N/A   Clear
9:15 AM 69.8 °F 55.4 °F 60% 29.90 in 10.0 mi North - - N/A   Clear
9:35 AM 69.8 °F 55.4 °F 60% 29.90 in 10.0 mi SSE 5.8 mph - N/A   Clear
9:55 AM 69.8 °F 55.4 °F 60% 29.89 in 10.0 mi SSE 4.6 mph - N/A   Clear
10:15 AM 71.6 °F 53.6 °F 53% 29.89 in 10.0 mi SE 5.8 mph - N/A   Clear
10:35 AM 73.4 °F 53.6 °F 50% 29.88 in 10.0 mi Calm Calm - N/A   Clear
10:55 AM 77.0 °F 51.8 °F 41% 29.88 in 10.0 mi SE 8.1 mph - N/A   Clear
11:15 AM 77.0 °F 51.8 °F 41% 29.88 in 10.0 mi SE 5.8 mph - N/A   Clear
11:35 AM 78.8 °F 50.0 °F 36% 29.88 in 10.0 mi SE 6.9 mph - N/A   Clear
11:55 AM 80.6 °F 50.0 °F 34% 29.88 in 10.0 mi SE 8.1 mph 17.3 mph N/A   Clear
12:15 PM 80.6 °F 48.2 °F 32% 29.87 in 10.0 mi SE 10.4 mph 17.3 mph N/A   Clear
12:35 PM 82.4 °F 46.4 °F 28% 29.87 in 10.0 mi ESE 5.8 mph 18.4 mph N/A   Clear
12:55 PM 82.4 °F 46.4 °F 28% 29.87 in 10.0 mi SSE 11.5 mph 19.6 mph N/A   Clear
1:15 PM 84.2 °F 44.6 °F 25% 29.86 in 10.0 mi South 8.1 mph 18.4 mph N/A   Clear
1:35 PM 84.2 °F 46.4 °F 27% 29.86 in 10.0 mi SE 6.9 mph 20.7 mph N/A   Clear
1:55 PM 86.0 °F 46.4 °F 25% 29.86 in 10.0 mi North - - N/A   Clear
2:15 PM 86.0 °F 46.4 °F 25% 29.86 in 10.0 mi South 9.2 mph 18.4 mph N/A   Clear
2:35 PM 87.8 °F 46.4 °F 24% 29.84 in 10.0 mi South 11.5 mph 18.4 mph N/A   Clear
2:55 PM 87.8 °F 46.4 °F 24% 29.84 in 10.0 mi South 8.1 mph - N/A   Clear
3:15 PM 86.0 °F 46.4 °F 25% 29.83 in 10.0 mi South 15.0 mph 19.6 mph N/A   Clear
3:35 PM 86.0 °F 46.4 °F 25% 29.82 in 10.0 mi ESE 4.6 mph - N/A   Clear
3:55 PM 87.8 °F 46.4 °F 24% 29.82 in 10.0 mi South 9.2 mph 17.3 mph N/A   Scattered Clouds
4:15 PM 86.0 °F 46.4 °F 25% 29.81 in 10.0 mi SSE 4.6 mph - N/A   Clear
4:35 PM 84.2 °F 46.4 °F 27% 29.80 in 10.0 mi SE 8.1 mph 17.3 mph N/A   Scattered Clouds
4:55 PM 84.2 °F 46.4 °F 27% 29.79 in 10.0 mi SSE 6.9 mph - N/A   Scattered Clouds
5:15 PM 84.2 °F 46.4 °F 27% 29.79 in 10.0 mi SE 9.2 mph - N/A   Clear
5:35 PM 84.2 °F 46.4 °F 27% 29.79 in 10.0 mi North - - N/A   Clear
6:15 PM 82.4 °F 48.2 °F 30% 29.79 in 10.0 mi North - - N/A   Scattered Clouds
6:35 PM 68.0 °F 59.0 °F 73% 29.82 in 2.0 mi ESE 15.0 mph 43.7 mph 0.10 in Rain , Thunderstorm Rain
6:55 PM 68.0 °F 60.8 °F 78% 29.83 in 10.0 mi SE 5.8 mph - 0.10 in Rain , Thunderstorm Light Thunderstorms and Rain
7:15 PM 68.0 °F 59.0 °F 73% 29.85 in 7.0 mi ENE 5.8 mph - 0.04 in Rain , Thunderstorm Rain
7:35 PM 68.0 °F 59.0 °F 73% 29.85 in 10.0 mi North - - 0.04 in Thunderstorm Scattered Clouds
7:55 PM 68.0 °F 59.0 °F 73% 29.86 in 10.0 mi North - - 0.04 in   Clear
8:15 PM 68.0 °F 59.0 °F 73% 29.87 in 10.0 mi NE 3.5 mph - N/A   Scattered Clouds
8:35 PM 69.8 °F 59.0 °F 68% 29.87 in 10.0 mi Calm Calm - N/A   Mostly Cloudy
8:55 PM 68.0 °F 59.0 °F 73% 29.87 in 10.0 mi SE 3.5 mph - N/A   Scattered Clouds
9:15 PM 68.0 °F 59.0 °F 73% 29.87 in 10.0 mi Calm Calm - N/A   Scattered Clouds
9:35 PM 69.8 °F 59.0 °F 68% 29.89 in 10.0 mi Calm Calm - N/A   Scattered Clouds
9:55 PM 68.0 °F 59.0 °F 73% 29.87 in 10.0 mi ESE 9.2 mph - N/A Thunderstorm Clear
10:15 PM 69.8 °F 55.4 °F 60% 29.85 in 10.0 mi ESE 15.0 mph - N/A   Scattered Clouds
10:35 PM 69.8 °F 55.4 °F 60% 29.86 in 10.0 mi North - - N/A   Clear
10:55 PM 68.0 °F 57.2 °F 68% 29.85 in 10.0 mi SE 5.8 mph - N/A   Clear
11:15 PM 66.2 °F 55.4 °F 68% 29.85 in 10.0 mi East 4.6 mph - N/A   Clear
11:35 PM 68.0 °F 55.4 °F 64% 29.85 in 10.0 mi Calm Calm - N/A   Clear
11:55 PM 64.4 °F 55.4 °F 73% 29.85 in 10.0 mi Calm Calm - N/A   Clear